H1 CPF 2 NER 2020 12 30 9 365 01 glonass128 H2 1106401 9128 37867 2020 12 30 0 0 0 2021 1 2 23 45 0 900 1 1 0 0 0 1 H9 10 0 59213 0.00000 0 -638308.539 -14077796.530 -21213024.577 10 0 59213 900.00000 0 1402803.520 -12323518.867 -22245646.373 10 0 59213 1800.00000 0 3646971.171 -10663183.433 -22844308.083 10 0 59213 2700.00000 0 6044487.673 -9145583.792 -22997504.546 10 0 59213 3600.00000 0 8537549.253 -7810262.395 -22702452.715 10 0 59213 4500.00000 0 11062462.075 -6685986.692 -21965130.452 10 0 59213 5400.00000 0 13552104.396 -5789699.375 -20800141.562 10 0 59213 6300.00000 0 15938540.463 -5125985.040 -19230411.072 10 0 59213 7200.00000 0 18155676.437 -4687073.221 -17286718.151 10 0 59213 8100.00000 0 20141847.492 -4453374.850 -15007077.212 10 0 59213 9000.00000 0 21842228.559 -4394526.668 -12435980.563 10 0 59213 9900.00000 0 23210968.969 -4470896.888 -9623518.584 10 0 59213 10800.00000 0 24212963.378 -4635486.200 -6624395.516 10 0 59213 11700.00000 0 24825186.857 -4836142.024 -3496860.717 10 0 59213 12600.00000 0 25037540.478 -5017991.267 -301576.708 10 0 59213 13500.00000 0 24853174.372 -5125988.214 2899553.919 10 0 59213 14400.00000 0 24288276.902 -5107469.966 6044580.170 10 0 59213 15300.00000 0 23371340.748 -4914612.030 9072690.267 10 0 59213 16200.00000 0 22141938.035 -4506681.399 11925373.134 10 0 59213 17100.00000 0 20649056.647 -3851993.126 14547532.542 10 0 59213 18000.00000 0 18949067.455 -2929489.070 16888533.747 10 0 59213 18900.00000 0 17103406.926 -1729873.149 18903164.092 10 0 59213 19800.00000 0 15176070.702 -256255.649 20552490.740 10 0 59213 20700.00000 0 13231021.144 1475720.777 21804600.534 10 0 59213 21600.00000 0 11329614.945 3438279.774 22635209.107 10 0 59213 22500.00000 0 9528155.950 5592419.858 23028128.502 10 0 59213 23400.00000 0 7875673.233 7889297.331 22975584.729 10 0 59213 24300.00000 0 6412015.361 10272028.858 22478379.082 10 0 59213 25200.00000 0 5166339.166 12677841.773 21545889.385 10 0 59213 26100.00000 0 4156055.569 15040485.611 20195909.880 10 0 59213 27000.00000 0 3386276.557 17292807.244 18454331.088 10 0 59213 27900.00000 0 2849787.096 19369384.588 16354663.700 10 0 59213 28800.00000 0 2527544.272 21209110.406 13937413.482 10 0 59213 29700.00000 0 2389683.990 22757618.982 11249317.075 10 0 59213 30600.00000 0 2396994.186 23969453.950 8342451.510 10 0 59213 31500.00000 0 2502793.527 24809885.327 5273233.315 10 0 59213 32400.00000 0 2655136.841 25256297.965 2101325.697 10 0 59213 33300.00000 0 2799253.948 25299091.020 -1111525.198 10 0 59213 34200.00000 0 2880117.882 24942048.476 -4302701.748 10 0 59213 35100.00000 0 2845032.174 24202163.239 -7409949.399 10 0 59213 36000.00000 0 2646125.406 23108920.701 -10372608.655 10 0 59213 36900.00000 0 2242644.760 21703071.101 -13132818.497 10 0 59213 37800.00000 0 1602948.592 20034942.272 -15636665.696 10 0 59213 38700.00000 0 706110.927 18162364.299 -17835255.666 10 0 59213 39600.00000 0 -456932.480 16148294.607 -19685682.083 10 0 59213 40500.00000 0 -1882746.928 14058244.823 -21151875.056 10 0 59213 41400.00000 0 -3555298.775 11957619.119 -22205310.416 10 0 59213 42300.00000 0 -5446397.656 9909077.345 -22825565.867 10 0 59213 43200.00000 0 -7516662.536 7970034.632 -23000713.352 10 0 59213 44100.00000 0 -9716970.784 6190402.821 -22727540.576 10 0 59213 45000.00000 0 -11990328.777 4610668.193 -22011598.319 10 0 59213 45900.00000 0 -14274084.834 3260385.063 -20867073.887 10 0 59213 46800.00000 0 -16502391.045 2157146.626 -19316494.539 10 0 59213 47700.00000 0 -18608810.233 1306073.873 -17390268.137 10 0 59213 48600.00000 0 -20528958.708 699841.192 -15126071.433 10 0 59213 49500.00000 0 -22203074.380 319234.457 -12568099.179 10 0 59213 50400.00000 0 -23578403.307 134215.104 -9766189.936 10 0 59213 51300.00000 0 -24611305.916 105442.515 -6774846.566 10 0 59213 52200.00000 0 -25268996.263 186188.098 -3652171.155 10 0 59213 53100.00000 0 -25530843.281 324558.516 -458735.645 10 0 59213 54000.00000 0 -25389181.581 465933.026 2743589.790 10 0 59213 54900.00000 0 -24849599.861 555511.533 5892828.059 10 0 59213 55800.00000 0 -23930696.659 540865.936 8928083.533 10 0 59213 56700.00000 0 -22663315.164 374387.740 11790705.357 10 0 59213 57600.00000 0 -21089290.029 15529.689 14425404.417 10 0 59213 58500.00000 0 -19259758.887 -567251.940 16781303.747 10 0 59213 59400.00000 0 -17233108.763 -1394935.109 18812903.757 10 0 59213 60300.00000 0 -15072641.983 -2476814.930 20480945.371 10 0 59213 61200.00000 0 -12844057.387 -3809878.457 21753155.962 10 0 59213 62100.00000 0 -10612849.706 -5378698.156 22604865.119 10 0 59213 63000.00000 0 -8441733.110 -7155849.861 23019479.418 10 0 59213 63900.00000 0 -6388193.994 -9102839.698 22988807.486 10 0 59213 64800.00000 0 -4502272.765 -11171503.926 22513229.087 10 0 59213 65700.00000 0 -2824665.378 -13305826.265 21601704.279 10 0 59213 66600.00000 0 -1385222.702 -15444099.964 20271621.208 10 0 59213 67500.00000 0 -201909.873 -17521347.382 18548483.762 10 0 59213 68400.00000 0 719730.747 -19471898.650 16465442.974 10 0 59213 69300.00000 0 1386589.742 -21232023.494 14062679.031 10 0 59213 70200.00000 0 1817472.533 -22742507.196 11386643.622 10 0 59213 71100.00000 0 2042073.531 -23951063.019 8489175.300 10 0 59213 72000.00000 0 2099484.637 -24814479.095 5426503.581 10 0 59213 72900.00000 0 2036300.281 -25300408.195 2258160.146 10 0 59213 73800.00000 0 1904398.843 -25388723.079 -954181.988 10 0 59213 74700.00000 0 1758494.744 -25072378.051 -4147918.183 10 0 59213 75600.00000 0 1653566.059 -24357738.175 -7260746.256 10 0 59213 76500.00000 0 1642268.454 -23264360.257 -10231899.261 10 0 59213 77400.00000 0 1772447.349 -21824233.364 -13003350.951 10 0 59213 78300.00000 0 2084856.381 -20080510.088 -15520968.377 10 0 59213 79200.00000 0 2611181.505 -18085781.870 -17735587.146 10 0 59213 80100.00000 0 3372456.863 -15899971.550 -19603986.489 10 0 59213 81000.00000 0 4377941.559 -13587932.822 -21089743.800 10 0 59213 81900.00000 0 5624506.429 -11216858.726 -22163951.054 10 0 59213 82800.00000 0 7096557.623 -8853609.363 -22805778.712 10 0 59213 83700.00000 0 8766500.636 -6562071.999 -23002876.273 10 0 59213 84600.00000 0 10595725.142 -4400664.799 -22751602.244 10 0 59213 85500.00000 0 12536068.570 -2420088.841 -22057079.999 10 0 59214 0.00000 0 14531696.136 -661421.787 -20933079.695 10 0 59214 900.00000 0 16521317.625 845368.330 -19401729.739 10 0 59214 1800.00000 0 18440646.799 2082429.527 -17493065.383 10 0 59214 2700.00000 0 20224999.844 3044511.987 -15244424.021 10 0 59214 3600.00000 0 21811923.861 3738917.995 -12699700.809 10 0 59214 4500.00000 0 23143745.013 4184919.856 -9908480.095 10 0 59214 5400.00000 0 24169930.417 4412674.037 -6925060.619 10 0 59214 6300.00000 0 24849165.781 4461679.922 -3807394.169 10 0 59214 7200.00000 0 25151063.108 4378850.476 -615958.862 10 0 59214 8100.00000 0 25057428.617 4216277.902 2587410.889 10 0 59214 9000.00000 0 24563039.504 4028789.575 5740715.245 10 0 59214 9900.00000 0 23675898.682 3871397.635 8782977.948 10 0 59214 10800.00000 0 22416958.276 3796749.573 11655411.370 10 0 59214 11700.00000 0 20819324.382 3852686.469 14302536.238 10 0 59214 12600.00000 0 18926976.770 4080010.693 16673235.752 10 0 59214 13500.00000 0 16793056.745 4510555.887 18721725.431 10 0 59214 14400.00000 0 14477793.638 5165639.412 20408421.623 10 0 59214 15300.00000 0 12046154.860 6054961.681 21700693.511 10 0 59214 16200.00000 0 9565315.295 7175998.551 22573485.544 10 0 59214 17100.00000 0 7102048.940 8513912.977 23009799.305 10 0 59214 18000.00000 0 4720148.834 10041991.027 23001026.079 10 0 59214 18900.00000 0 2477980.196 11722586.172 22547123.676 10 0 59214 19800.00000 0 426266.443 13508535.040 21656633.475 10 0 59214 20700.00000 0 -1393801.164 15344988.353 20346536.139 10 0 59214 21600.00000 0 -2952052.513 17171583.554 18641947.071 10 0 59214 22500.00000 0 -4230364.351 18924870.985 16575655.385 10 0 59214 23400.00000 0 -5223179.509 20540894.229 14187513.090 10 0 59214 24300.00000 0 -5937497.078 21957818.018 11523684.057 10 0 59214 25200.00000 0 -6392332.918 23118494.027 8635765.306 10 0 59214 26100.00000 0 -6617672.001 23972856.434 5579796.170 10 0 59214 27000.00000 0 -6652955.858 24480045.321 2415173.578 10 0 59214 27900.00000 0 -6545168.501 24610166.639 -796505.772 10 0 59214 28800.00000 0 -6346601.788 24345612.200 -3992653.355 10 0 59214 29700.00000 0 -6112395.625 23681881.564 -7110922.314 10 0 59214 30600.00000 0 -5897958.607 22627868.751 -10090440.977 10 0 59214 31500.00000 0 -5756380.401 21205599.693 -12873020.304 10 0 59214 32400.00000 0 -5735947.906 19449430.092 -15404309.716 10 0 59214 33300.00000 0 -5877873.006 17404736.699 -17634876.732 10 0 59214 34200.00000 0 -6214330.569 15126157.114 -19521187.500 10 0 59214 35100.00000 0 -6766891.925 12675452.649 -21026467.708 10 0 59214 36000.00000 0 -7545421.737 10119084.977 -22121426.151 10 0 59214 36900.00000 0 -8547485.965 7525609.452 -22784826.397 10 0 59214 37800.00000 0 -9758296.395 4962995.458 -23003895.520 10 0 59214 38700.00000 0 -11151193.989 2495986.730 -22774562.509 10 0 59214 39600.00000 0 -12688650.084 183612.513 -22101522.629 10 0 59214 40500.00000 0 -14323742.390 -1923046.774 -20998127.732 10 0 59214 41400.00000 0 -16002042.664 -3782746.996 -19486106.022 10 0 59214 42300.00000 0 -17663835.548 -5365543.684 -17595118.215 10 0 59214 43200.00000 0 -19246574.476 -6653772.581 -15362160.188 10 0 59214 44100.00000 0 -20687470.845 -7642509.203 -12830825.065 10 0 59214 45000.00000 0 -21926107.474 -8339491.344 -10050440.360 10 0 59214 45900.00000 0 -22906966.788 -8764511.102 -7075097.965 10 0 59214 46800.00000 0 -23581768.281 -8948305.109 -3962596.573 10 0 59214 47700.00000 0 -23911518.126 -8930992.375 -773317.667 10 0 59214 48600.00000 0 -23868186.279 -8760127.738 2430942.917 10 0 59214 49500.00000 0 -23435942.236 -8488454.464 5588165.368 10 0 59214 50400.00000 0 -22611899.134 -8171451.488 8637295.546 10 0 59214 51300.00000 0 -21406336.357 -7864778.780 11519411.697 10 0 59214 52200.00000 0 -19842392.301 -7621727.970 14178846.895 10 0 59214 53100.00000 0 -17955240.645 -7490784.613 16564246.805 10 0 59214 54000.00000 0 -15790784.393 -7513403.467 18629544.047 10 0 59214 54900.00000 0 -13403921.321 -7722089.120 20334832.029 10 0 59214 55800.00000 0 -10856451.734 -8138861.548 21647122.964 10 0 59214 56700.00000 0 -8214713.547 -8774170.496 22540976.906 10 0 59214 57600.00000 0 -5547040.610 -9626304.234 22998990.743 10 0 59214 58500.00000 0 -2921147.327 -10681318.257 23012138.249 10 0 59214 59400.00000 0 -401545.596 -11913488.388 22579954.703 10 0 59214 60300.00000 0 1952901.006 -13286271.506 21710561.849 10 0 59214 61200.00000 0 4091185.947 -14753736.222 20420531.577 10 0 59214 62100.00000 0 5972040.833 -16262406.462 18734589.214 10 0 59214 63000.00000 0 7565411.160 -17753443.473 16685160.088 10 0 59214 63900.00000 0 8853465.058 -19165077.160 14311765.901 10 0 59214 64800.00000 0 9831092.324 -20435186.522 11660280.332 10 0 59214 65700.00000 0 10505871.882 -21503921.771 8782056.274 10 0 59214 66600.00000 0 10897507.836 -22316257.889 5732940.107 10 0 59214 67500.00000 0 11036756.853 -22824371.288 2572191.127 10 0 59214 68400.00000 0 10963891.308 -22989737.746 -638673.228 10 0 59214 69300.00000 0 10726762.837 -22784860.868 -3837083.441 10 0 59214 70200.00000 0 10378548.551 -22194555.522 -6960650.799 10 0 59214 71100.00000 0 9975276.362 -21216729.425 -9948401.572 10 0 59214 72000.00000 0 9573235.821 -19862627.447 -12741986.414 10 0 59214 72900.00000 0 9226386.287 -18156526.386 -15286839.382 10 0 59214 73800.00000 0 8983874.565 -16134891.696 -17533261.925 10 0 59214 74700.00000 0 8887769.506 -13845031.089 -19437408.818 10 0 59214 75600.00000 0 8971111.601 -11343301.634 -20962155.412 10 0 59214 76500.00000 0 9256361.823 -8692946.174 -22077828.313 10 0 59214 77400.00000 0 9754316.427 -5961650.809 -22762784.781 10 0 59214 78300.00000 0 10463534.078 -3218926.733 -23003829.648 10 0 59214 79200.00000 0 11370299.420 -533426.884 -22796462.175 10 0 59214 80100.00000 0 12449123.972 2029689.819 -22144948.970 10 0 59214 81000.00000 0 13663762.191 4411236.525 -21062222.744 10 0 59214 81900.00000 0 14968698.636 6560215.949 -19569610.279 10 0 59214 82800.00000 0 16311042.224 8435685.961 -17696396.368 10 0 59214 83700.00000 0 17632746.564 10008197.343 -15479233.668 10 0 59214 84600.00000 0 18873061.952 11260746.233 -12961411.302 10 0 59214 85500.00000 0 19971115.131 12189204.316 -10191997.701 10 0 59215 0.00000 0 20868508.144 12802212.042 -7224875.446 10 0 59215 900.00000 0 21511826.947 13120542.532 -4117687.238 10 0 59215 1800.00000 0 21854955.727 13175966.056 -930715.030 10 0 59215 2700.00000 0 21861099.222 13009664.994 2274286.973 10 0 59215 3600.00000 0 21504431.026 12670268.439 5435282.069 10 0 59215 4500.00000 0 20771298.747 12211589.994 8491141.222 10 0 59215 5400.00000 0 19660937.344 11690164.739 11382811.387 10 0 59215 6300.00000 0 18185661.491 11162688.786 14054440.592 10 0 59215 7200.00000 0 16370529.544 10683468.411 16454439.317 10 0 59215 8100.00000 0 14252493.096 10301984.871 18536459.351 10 0 59215 9000.00000 0 11879066.901 10060675.841 20260272.935 10 0 59215 9900.00000 0 9306573.335 9993025.338 21592536.752 10 0 59215 10800.00000 0 6598032.491 10122041.205 22507427.569 10 0 59215 11700.00000 0 3820783.162 10459183.444 22987138.298 10 0 59215 12600.00000 0 1043930.942 11003788.383 23022225.521 10 0 59215 13500.00000 0 -1664273.453 11743013.598 22611801.823 10 0 59215 14400.00000 0 -4239019.422 12652307.381 21763568.669 10 0 59215 15300.00000 0 -6621380.094 13696385.135 20493688.010 10 0 59215 16200.00000 0 -8760514.432 14830674.264 18826493.432 10 0 59215 17100.00000 0 -10615537.261 16003169.535 16794044.351 10 0 59215 18000.00000 0 -12156979.477 17156623.445 14435529.637 10 0 59215 18900.00000 0 -13367777.158 18230981.585 11796529.954 10 0 59215 19800.00000 0 -14243747.380 19165961.858 8928151.035 10 0 59215 20700.00000 0 -14793529.537 19903669.380 5886043.161 10 0 59215 21600.00000 0 -15037993.478 20391136.415 2729324.813 10 0 59215 22500.00000 0 -15009138.328 20582678.817 -480568.989 10 0 59215 23400.00000 0 -14748527.811 20441967.431 -3681090.812 10 0 59215 24300.00000 0 -14305328.111 19943724.404 -6809813.040 10 0 59215 25200.00000 0 -13734031.852 19074969.921 -9805662.655 10 0 59215 26100.00000 0 -13091965.738 17835764.002 -12610132.538 10 0 59215 27000.00000 0 -12436689.133 16239409.640 -15168443.616 10 0 59215 27900.00000 0 -11823395.833 14312106.810 -17430633.172 10 0 59215 28800.00000 0 -11302431.242 12092070.743 -19352546.153 10 0 59215 29700.00000 0 -10917032.112 9628151.037 -20896708.744 10 0 59215 30600.00000 0 -10701386.182 6978009.626 -22033066.178 10 0 59215 31500.00000 0 -10679094.961 4205934.733 -22739569.869 10 0 59215 32400.00000 0 -10862105.174 1380383.154 -23002602.519 10 0 59215 33300.00000 0 -11250153.888 -1428645.422 -22817233.432 10 0 59215 34200.00000 0 -11830750.097 -4152291.521 -22187299.959 10 0 59215 35100.00000 0 -12579692.293 -6725464.097 -21125314.711 10 0 59215 36000.00000 0 -13462098.747 -9089304.377 -19652201.729 10 0 59215 36900.00000 0 -14433905.340 -11193383.290 -17796868.215 10 0 59215 37800.00000 0 -15443766.203 -12997542.314 -15595621.640 10 0 59215 38700.00000 0 -16435275.588 -14473303.025 -13091444.905 10 0 59215 39600.00000 0 -17349416.246 -15604788.988 -10333144.947 10 0 59215 40500.00000 0 -18127130.437 -16389124.504 -7374392.357 10 0 59215 41400.00000 0 -18711905.059 -16836296.640 -4272671.466 10 0 59215 42300.00000 0 -19052262.258 -16968489.337 -1088161.901 10 0 59215 43200.00000 0 -19104051.344 -16818920.396 2117426.491 10 0 59215 44100.00000 0 -18832446.571 -16430232.433 5282042.853 10 0 59215 45000.00000 0 -18213567.926 -15852507.067 8344485.991 10 0 59215 45900.00000 0 -17235658.034 -15140986.783 11245574.279 10 0 59215 46800.00000 0 -15899766.761 -14353600.398 13929273.315 10 0 59215 47700.00000 0 -14219915.462 -13548395.661 16343760.856 10 0 59215 48600.00000 0 -12222734.121 -12780985.800 18442410.080 10 0 59215 49500.00000 0 -9946585.975 -12102115.805 20184673.956 10 0 59215 50400.00000 0 -7440214.986 -11555449.030 21536855.171 10 0 59215 51300.00000 0 -4760970.671 -11175665.462 22472748.306 10 0 59215 52200.00000 0 -1972681.665 -10986950.250 22974142.961 10 0 59215 53100.00000 0 856736.269 -11001935.225 23031178.736 10 0 59215 54000.00000 0 3657841.450 -11221137.794 22642545.330 10 0 59215 54900.00000 0 6362293.267 -11632921.498 21815523.333 10 0 59215 55800.00000 0 8905438.334 -12213981.299 20565863.809 10 0 59215 56700.00000 0 11228750.445 -12930335.192 18917507.311 10 0 59215 57600.00000 0 13282024.233 -13738782.786 16902145.730 10 0 59215 58500.00000 0 15025231.716 -14588771.871 14558633.165 10 0 59215 59400.00000 0 16429964.200 -15424596.537 11932255.002 10 0 59215 60300.00000 0 17480398.577 -16187835.807 9073867.231 10 0 59215 61200.00000 0 18173746.289 -16819930.805 6038921.159 10 0 59215 62100.00000 0 18520164.826 -17264791.650 2886391.338 10 0 59215 63000.00000 0 18542134.154 -17471323.012 -322372.894 10 0 59215 63900.00000 0 18273323.310 -17395759.864 -3524849.507 10 0 59215 64800.00000 0 17756994.526 -17003712.241 -6658575.225 10 0 59215 65700.00000 0 17044012.373 -16271829.786 -9662380.830 10 0 59215 66600.00000 0 16190542.898 -15189012.816 -12477604.270 10 0 59215 67500.00000 0 15255541.400 -13757116.011 -15049255.900 10 0 59215 68400.00000 0 14298136.966 -11991112.698 -17327111.038 10 0 59215 69300.00000 0 13375026.416 -9918711.088 -19266706.650 10 0 59215 70200.00000 0 12537989.872 -7579437.546 -20830221.214 10 0 59215 71100.00000 0 11831634.733 -5023225.013 -21987219.637 10 0 59215 72000.00000 0 11291464.626 -2308566.042 -22715248.117 10 0 59215 72900.00000 0 10942355.559 499691.569 -23000267.442 10 0 59215 73800.00000 0 10797503.541 3332813.549 -22836916.774 10 0 59215 74700.00000 0 10857887.395 6120808.253 -22228603.649 10 0 59215 75600.00000 0 11112268.125 8795105.785 -21187419.687 10 0 59215 76500.00000 0 11537723.142 11291175.211 -19733884.990 10 0 59215 77400.00000 0 12100690.854 13550970.958 -17896527.689 10 0 59215 78300.00000 0 12758479.502 15525107.382 -15711308.318 10 0 59215 79200.00000 0 13461174.715 17174672.361 -13220901.539 10 0 59215 80100.00000 0 14153863.692 18472606.314 -10473850.505 10 0 59215 81000.00000 0 14779080.980 19404591.620 -7523611.344 10 0 59215 81900.00000 0 15279371.995 19969418.186 -4427507.124 10 0 59215 82800.00000 0 15599865.967 20178812.734 -1245612.247 10 0 59215 83700.00000 0 15690750.138 20056741.835 1960410.847 10 0 59215 84600.00000 0 15509541.649 19638220.383 5128500.221 10 0 59215 85500.00000 0 15023062.453 18967677.426 8197385.527 10 0 59216 0.00000 0 14209035.306 18096949.246 11107759.350 10 0 59216 900.00000 0 13057234.311 17082984.490 13803407.620 10 0 59216 1800.00000 0 11570143.790 15985357.298 16232277.710 10 0 59216 2700.00000 0 9763096.037 14863692.417 18347466.309 10 0 59216 3600.00000 0 7663883.960 13775108.264 20108108.945 10 0 59216 4500.00000 0 5311862.498 12771784.005 21480155.833 10 0 59216 5400.00000 0 2756575.171 11898750.562 22437020.558 10 0 59216 6300.00000 0 55960.484 11191996.555 22960090.238 10 0 59216 7200.00000 0 -2725789.856 10676967.251 23039087.920 10 0 59216 8100.00000 0 -5520634.970 10367518.762 22672280.391 10 0 59216 9000.00000 0 -8259254.304 10265371.256 21866526.860 10 0 59216 9900.00000 0 -10873678.613 10360084.862 20637166.479 10 0 59216 10800.00000 0 -13299875.545 10629560.570 19007745.241 10 0 59216 11700.00000 0 -15480184.028 11041046.891 17009585.482 10 0 59216 12600.00000 0 -17365496.980 11552612.027 14681204.087 10 0 59216 13500.00000 0 -18917101.552 12115021.520 12067588.364 10 0 59216 14400.00000 0 -20108099.465 12673943.988 9219341.531 10 0 59216 15300.00000 0 -20924346.807 13172392.912 6191712.749 10 0 59216 16200.00000 0 -21364872.434 13553301.711 3043529.425 10 0 59216 17100.00000 0 -21441755.836 13762122.668 -163947.968 10 0 59216 18000.00000 0 -21179468.164 13749338.412 -3368225.910 10 0 59216 18900.00000 0 -20613703.263 13472777.525 -6506808.460 10 0 59216 19800.00000 0 -19789747.600 12899633.640 -9518433.033 10 0 59216 20700.00000 0 -18760458.230 12008099.679 -12344285.289 10 0 59216 21600.00000 0 -17583935.119 10788545.232 -14929167.381 10 0 59216 22500.00000 0 -16320987.672 9244184.665 -17222594.746 10 0 59216 23400.00000 0 -15032504.283 7391205.653 -19179798.076 10 0 59216 24300.00000 0 -13776837.956 5258351.178 -20762609.456 10 0 59216 25200.00000 0 -12607320.097 2885971.668 -21940214.359 10 0 59216 26100.00000 0 -11570008.782 324586.914 -22689754.241 10 0 59216 27000.00000 0 -10701767.279 -2366981.639 -22996768.036 10 0 59216 27900.00000 0 -10028753.905 -5123829.463 -22855464.427 10 0 59216 28800.00000 0 -9565386.281 -7877444.672 -22268820.436 10 0 59216 29700.00000 0 -9313822.336 -10558336.843 -21248505.627 10 0 59216 30600.00000 0 -9263978.080 -13098708.713 -19814634.771 10 0 59216 31500.00000 0 -9394079.186 -15435059.163 -17995355.251 10 0 59216 32400.00000 0 -9671720.715 -17510609.433 -15826278.731 10 0 59216 33300.00000 0 -10055387.948 -19277452.377 -13349769.511 10 0 59216 34200.00000 0 -10496372.001 -20698336.642 -10614104.707 10 0 59216 35100.00000 0 -10940997.662 -21748013.398 -7672523.640 10 0 59216 36000.00000 0 -11333068.136 -22414091.845 -4582185.726 10 0 59216 36900.00000 0 -11616422.844 -22697370.358 -1403057.737 10 0 59216 37800.00000 0 -11737500.164 -22611632.155 1803247.713 10 0 59216 38700.00000 0 -11647797.373 -22182916.513 4974660.041 10 0 59216 39600.00000 0 -11306124.812 -21448298.180 8049842.198 10 0 59216 40500.00000 0 -10680560.333 -20454227.657 10969363.549 10 0 59216 41400.00000 0 -9750022.725 -19254502.779 13676832.555 10 0 59216 42300.00000 0 -8505398.948 -17907956.729 16119968.645 10 0 59216 43200.00000 0 -6950178.304 -16475958.761 18251594.225 10 0 59216 44100.00000 0 -5100566.939 -15019831.070 20030529.359 10 0 59216 45000.00000 0 -2985077.247 -13598288.312 21422373.480 10 0 59216 45900.00000 0 -643607.901 -12265004.980 22400160.548 10 0 59216 46800.00000 0 1873949.206 -11066410.445 22944876.203 10 0 59216 47700.00000 0 4509519.670 -10039802.220 23045827.571 10 0 59216 48600.00000 0 7199002.630 -9211855.071 22700858.794 10 0 59216 49500.00000 0 9874685.731 -8597587.684 21916407.604 10 0 59216 50400.00000 0 12467821.565 -8199830.180 20707400.801 10 0 59216 51300.00000 0 14911261.195 -8009215.438 19096989.037 10 0 59216 52200.00000 0 17142037.285 -8004695.828 17116123.979 10 0 59216 53100.00000 0 19103790.505 -8154565.288 14802983.819 10 0 59216 54000.00000 0 20748938.546 -8417945.471 12202255.957 10 0 59216 54900.00000 0 22040496.818 -8746674.996 9364288.610 10 0 59216 55800.00000 0 22953473.558 -9087523.315 6344126.201 10 0 59216 56700.00000 0 23475779.376 -9384636.256 3200446.047 10 0 59216 57600.00000 0 23608611.257 -9582109.671 -5583.466 10 0 59216 58500.00000 0 23366293.111 -9626581.235 -3211500.723 10 0 59216 59400.00000 0 22775578.150 -9469728.903 -6354780.562 10 0 59216 60300.00000 0 21874441.563 -9070567.775 -9374070.404 10 0 59216 61200.00000 0 20710414.129 -8397445.335 -12210406.795 10 0 59216 62100.00000 0 19338527.491 -7429647.661 -14808386.599 10 0 59216 63000.00000 0 17818958.834 -6158545.842 -17117267.941 10 0 59216 63900.00000 0 16214475.846 -4588231.759 -19091977.445 10 0 59216 64800.00000 0 14587791.491 -2735614.450 -20694002.635 10 0 59216 65700.00000 0 12998941.808 -629971.723 -21892150.985 10 0 59216 66600.00000 0 11502798.749 1688024.721 -22663160.256 10 0 59216 67500.00000 0 10146823.722 4167769.776 -22992148.180 10 0 59216 68400.00000 0 8969156.735 6750609.401 -22872893.210 10 0 59216 69300.00000 0 7997121.128 9372069.410 -22307941.703 10 0 59216 70200.00000 0 7246205.658 11964334.596 -21308540.642 10 0 59216 71100.00000 0 6719564.897 14458873.965 -19894398.569 10 0 59216 72000.00000 0 6408056.692 16789101.973 -18093280.865 10 0 59216 72900.00000 0 6290812.429 18892964.728 -15940448.735 10 0 59216 73800.00000 0 6336313.311 20715343.788 -13477954.182 10 0 59216 74700.00000 0 6503924.703 22210178.166 -10753806.024 10 0 59216 75600.00000 0 6745821.462 23342217.580 -7821024.220 10 0 59216 76500.00000 0 7009221.190 24088335.699 -4736601.697 10 0 59216 77400.00000 0 7238829.898 24438350.772 -1560394.559 10 0 59216 78300.00000 0 7379396.129 24395321.787 1646037.602 10 0 59216 79200.00000 0 7378265.715 23975310.147 4820618.791 10 0 59216 80100.00000 0 7187829.798 23206618.939 7901948.452 10 0 59216 81000.00000 0 6767763.705 22128543.334 10830475.740 10 0 59216 81900.00000 0 6086963.353 20789685.457 13549634.625 10 0 59216 82800.00000 0 5125098.678 19245904.670 16006919.174 10 0 59216 83700.00000 0 3873719.550 17557988.647 18154879.846 10 0 59216 84600.00000 0 2336868.010 15789141.626 19952023.307 10 0 59216 85500.00000 0 531170.941 14002393.234 21363599.950 99